Wind_Speed
61 60 59 58 56 55 54 54 54 54 54 54 56 58 58 58 58 59 59 59 61 62 62 64 64 65 67 68 68 69 70 71 72 73 73 74 75 76
62 61 60 59 59 58 57 56 56 56 56 57 59 59 60 60 61 62 62 62 63 64 65 67 69 69 70 71 72 73 74 75 76 77 77 78 78 79
62 61 61 61 61 59 59 58 57 57 59 60 60 61 62 63 64 64 64 65 66 67 68 69 71 72 73 74 74 76 77 78 79 80 81 82 83 84
61 61 61 61 61 60 59 58 58 59 60 61 62 63 64 65 66 67 67 67 68 69 70 71 72 73 74 75 77 78 79 80 81 82 82 82 82 83
57 58 59 59 59 59 58 58 58 59 60 63 64 64 65 67 67 67 68 68 69 70 71 73 74 76 77 78 79 79 80 80 80 79 78 77 78 78
50 52 53 54 55 55 56 56 58 59 61 63 64 65 66 66 67 67 67 68 70 71 73 75 77 78 79 79 79 78 77 75 74 73 71 70 70 70
43 45 47 49 49 50 53 55 56 59 60 63 64 64 65 66 66 66 68 69 71 74 75 77 78 78 78 77 75 73 71 69 67 65 63 63 63 63
38 39 42 44 44 48 50 52 55 58 60 61 61 63 64 65 66 68 69 71 72 75 75 74 74 73 71 70 68 66 63 61 59 57 57 57 57 57
33 36 39 40 43 46 49 52 54 55 56 57 59 61 63 65 67 68 70 71 71 72 70 67 67 66 65 63 61 58 56 54 52 50 49 48 48 48
30 34 36 38 41 44 46 48 50 52 54 57 59 61 63 65 66 67 68 67 67 67 66 62 61 59 56 54 54 53 51 49 46 44 43 43 43 42
28 31 33 36 38 41 44 46 50 53 55 57 59 61 63 63 63 63 63 62 61 60 59 55 51 47 46 48 50 49 48 46 43 41 39 38 39 38
25 28 32 35 38 41 44 47 50 53 55 56 58 59 59 59 59 58 56 54 52 50 48 45 43 41 39 41 44 45 44 42 40 38 37 36 36 35
25 29 33 36 39 42 45 48 50 52 54 55 56 57 56 55 54 52 50 47 45 43 42 39 38 38 37 36 37 40 40 39 38 38 38 37 35 33
28 31 34 38 41 44 47 49 50 52 54 55 55 54 53 51 49 46 44 41 40 40 39 37 36 35 35 34 34 35 36 37 37 37 37 36 35 33
31 34 37 40 43 46 48 50 51 53 54 54 53 52 50 47 45 42 40 38 38 38 37 37 35 34 34 33 33 34 33 33 35 35 35 35 35 34
33 36 40 43 46 47 49 51 53 54 53 51 49 47 45 43 40 38 37 36 36 37 38 38 37 35 34 35 35 34 33 32 31 33 32 32 33 33
37 40 43 46 48 49 51 52 52 51 49 47 45 42 40 38 36 35 34 34 34 35 37 38 38 36 35 36 36 35 33 32 31 32 31 30 31 32
39 42 45 47 49 50 51 50 49 47 44 42 40 38 36 35 34 33 33 33 34 35 37 37 36 35 35 35 37 37 34 33 32 32 32 30 29 31
42 44 47 48 49 50 49 47 45 42 40 38 36 35 34 33 33 33 34 34 34 35 37 37 37 35 33 31 31 37 35 33 32 31 32 30 29 29
44 46 48 49 49 48 46 44 41 39 37 36 34 34 33 33 33 34 34 35 35 35 36 37 38 37 35 32 29 32 37 35 31 30 29 29 28 28
46 48 49 49 47 46 44 41 39 37 36 35 34 34 33 34 34 35 35 35 35 35 35 36 37 38 37 35 32 31 34 35 33 31 30 28 26 26
47 49 49 47 45 44 41 39 38 37 35 35 34 34 34 35 35 36 36 36 36 36 35 35 36 36 37 36 34 32 31 32 32 33 33 31 28 25
48 49 48 46 45 43 41 39 37 36 35 35 35 35 36 36 36 37 37 37 36 36 36 35 34 35 36 36 34 33 32 30 30 30 32 32 30 28
Wind_Direction
260 262 264 266 268 271 273 275 277 279 280 281 282 282 283 284 283 284 283 283 284 283 283 283 283 284 284 284 284 283 283 282 281 280 279 277 275 273
260 262 264 266 269 271 273 275 277 278 278 280 281 282 283 284 284 285 285 284 285 285 284 284 284 284 285 285 284 284 283 282 281 280 278 276 274 272
261 262 264 267 269 271 273 275 276 278 279 280 280 281 283 284 285 286 286 286 286 285 285 285 286 286 285 286 285 285 284 283 281 280 278 276 274 272
259 262 264 266 268 270 273 275 276 277 278 279 281 283 284 285 286 287 288 288 289 288 288 288 288 287 287 287 287 286 285 283 281 280 278 277 275 273
258 260 263 265 268 270 272 274 275 276 277 279 281 283 285 287 288 288 289 290 291 290 290 289 289 288 289 288 288 287 285 284 282 281 279 277 276 274
258 260 262 265 267 270 272 272 275 276 278 280 282 285 287 288 289 290 291 291 291 291 291 291 290 291 290 289 288 287 286 285 284 282 280 279 277 275
257 260 262 265 268 270 272 274 275 277 280 282 285 286 287 289 291 292 292 292 292 292 292 292 291 291 290 290 289 288 287 286 285 284 282 281 279 277
257 259 263 266 268 271 273 274 276 279 281 284 286 288 290 292 293 293 293 293 293 292 293 292 292 292 291 290 289 288 288 288 288 287 285 283 281 279
257 261 265 266 269 273 276 279 282 284 286 289 290 292 293 294 294 294 295 295 294 293 293 293 293 293 292 291 290 290 291 292 292 291 289 287 284 281
262 266 268 270 274 278 282 285 288 290 292 293 295 296 296 296 296 296 296 295 295 294 294 294 294 293 292 291 292 292 294 295 294 293 292 290 288 283
266 271 275 280 283 286 289 292 294 296 297 298 298 298 298 298 298 298 297 296 295 295 296 297 295 295 294 294 294 295 296 297 297 296 296 294 291 287
278 282 285 288 290 293 296 298 299 300 300 300 300 300 300 300 300 299 298 298 297 297 298 299 297 296 296 296 296 296 298 299 300 299 299 298 295 291
289 291 293 295 296 298 300 301 302 302 302 302 302 303 303 303 302 300 300 300 300 300 300 300 298 298 297 296 294 296 298 299 299 300 301 300 298 294
296 297 299 300 302 303 304 304 304 304 304 304 304 304 305 305 304 303 303 303 302 302 302 302 301 300 299 298 296 295 298 298 298 299 300 299 297 295
301 302 303 305 306 307 307 306 306 306 305 305 304 305 305 305 305 305 305 305 305 305 305 306 306 304 303 302 300 299 298 298 299 300 300 298 296 295
305 306 307 309 310 309 308 307 307 307 306 305 304 305 305 305 305 305 305 306 307 307 308 309 309 308 308 306 305 303 302 301 299 301 301 300 298 296
309 310 311 312 311 310 309 308 308 307 305 305 304 305 305 306 307 307 307 306 307 308 309 310 310 310 310 308 307 306 305 305 304 304 303 302 299 297
311 312 313 313 313 312 311 310 309 308 306 306 305 305 305 306 307 308 308 307 309 309 310 309 309 309 310 310 309 308 309 309 308 306 305 304 300 298
313 314 314 315 314 313 312 311 310 309 308 307 306 306 305 305 306 307 307 308 309 310 310 310 310 310 309 309 308 307 307 307 307 306 305 305 302 299
315 316 316 316 315 314 313 312 311 310 308 307 305 305 305 305 305 306 307 308 308 309 310 310 310 311 311 311 311 308 308 308 308 307 306 305 304 302
318 318 318 317 315 314 313 312 310 309 307 306 305 304 304 305 305 306 307 308 308 309 310 310 310 311 312 313 313 311 310 310 310 310 309 307 304 302
319 320 319 318 316 314 313 311 309 307 306 305 304 304 304 305 305 306 307 308 308 308 310 310 310 310 310 311 312 312 311 309 310 311 312 310 307 304
321 321 320 318 316 314 312 309 308 306 305 304 304 304 304 305 306 307 307 307 307 308 309 309 309 309 309 310 312 311 310 309 308 308 308 308 307 306
Height
5702 5703 5703 5704 5704 5704 5704 5703 5702 5699 5697 5695 5691 5688 5684 5681 5679 5676 5673 5670 5667 5663 5660 5657 5654 5651 5648 5644 5641 5638 5635 5632 5629 5626 5624 5621 5619 5617
5688 5690 5691 5691 5692 5691 5691 5690 5689 5686 5683 5680 5676 5673 5669 5665 5663 5660 5657 5653 5650 5646 5642 5638 5635 5631 5628 5624 5620 5616 5613 5609 5606 5602 5599 5595 5593 5590
5675 5677 5678 5679 5679 5679 5678 5677 5675 5673 5669 5665 5661 5657 5654 5650 5646 5643 5639 5636 5632 5627 5622 5619 5615 5610 5606 5602 5598 5593 5589 5585 5580 5576 5572 5568 5565 5562
5661 5663 5664 5665 5666 5666 5665 5663 5661 5658 5655 5651 5646 5642 5638 5634 5630 5626 5621 5617 5612 5607 5602 5597 5593 5588 5583 5579 5574 5569 5564 5558 5553 5548 5544 5540 5536 5532
5647 5650 5651 5652 5652 5652 5651 5649 5646 5644 5640 5636 5631 5627 5622 5617 5613 5608 5603 5598 5592 5587 5581 5576 5571 5566 5560 5554 5548 5543 5537 5531 5526 5521 5516 5511 5507 5503
5634 5636 5638 5639 5639 5638 5637 5635 5632 5629 5625 5621 5616 5611 5606 5601 5596 5591 5585 5579 5573 5566 5560 5554 5548 5541 5535 5528 5522 5516 5510 5505 5499 5494 5489 5485 5481 5477
5622 5624 5625 5626 5626 5625 5623 5621 5618 5615 5610 5606 5601 5595 5590 5584 5579 5573 5567 5560 5553 5545 5539 5530 5524 5517 5509 5503 5496 5491 5486 5481 5476 5471 5466 5462 5457 5453
5611 5613 5614 5614 5613 5612 5610 5608 5604 5600 5596 5591 5585 5580 5573 5567 5561 5554 5547 5540 5533 5524 5518 5509 5499 5493 5485 5479 5473 5468 5464 5459 5455 5450 5445 5440 5436 5432
5602 5603 5604 5603 5603 5601 5598 5594 5590 5586 5581 5576 5570 5564 5557 5550 5543 5535 5527 5519 5510 5502 5496 5490 5479 5472 5464 5457 5452 5448 5445 5441 5436 5432 5427 5422 5418 5414
5594 5595 5594 5593 5592 5589 5586 5582 5577 5572 5567 5561 5555 5547 5540 5532 5524 5516 5508 5499 5490 5481 5475 5471 5462 5455 5447 5440 5434 5431 5428 5425 5421 5416 5412 5407 5403 5398
5587 5587 5586 5584 5582 5579 5574 5569 5564 5558 5551 5544 5538 5530 5522 5514 5505 5498 5489 5482 5474 5463 5457 5453 5446 5441 5434 5426 5420 5415 5413 5410 5406 5402 5398 5393 5388 5384
5580 5579 5577 5574 5571 5567 5562 5556 5550 5543 5536 5529 5521 5513 5505 5497 5488 5481 5473 5465 5457 5450 5443 5439 5433 5428 5425 5416 5408 5403 5400 5396 5393 5389 5384 5380 5375 5371
5573 5571 5568 5565 5561 5556 5550 5543 5536 5529 5521 5513 5505 5497 5489 5481 5472 5465 5458 5450 5444 5438 5432 5428 5422 5416 5412 5408 5401 5394 5389 5385 5381 5377 5372 5368 5363 5360
5566 5563 5559 5555 5549 5543 5537 5529 5522 5514 5506 5498 5489 5481 5473 5465 5458 5451 5444 5437 5431 5426 5421 5416 5412 5406 5401 5397 5392 5386 5380 5375 5371 5367 5362 5357 5352 5349
5558 5554 5549 5543 5537 5530 5523 5515 5508 5499 5491 5483 5474 5467 5459 5452 5445 5438 5432 5426 5420 5415 5410 5405 5400 5396 5391 5386 5382 5376 5372 5367 5361 5357 5352 5347 5342 5338
5549 5544 5538 5532 5525 5518 5510 5502 5494 5485 5477 5469 5461 5453 5446 5440 5434 5428 5422 5417 5412 5405 5399 5394 5390 5385 5380 5375 5370 5365 5361 5357 5353 5347 5343 5337 5332 5328
5539 5534 5527 5520 5513 5505 5497 5489 5480 5471 5463 5455 5448 5442 5435 5429 5423 5418 5413 5408 5403 5398 5391 5385 5380 5375 5370 5365 5360 5355 5350 5346 5342 5337 5333 5329 5323 5318
5529 5523 5516 5508 5500 5492 5484 5475 5466 5458 5451 5444 5437 5431 5425 5419 5414 5409 5405 5400 5395 5389 5383 5377 5372 5367 5362 5356 5349 5344 5340 5336 5332 5327 5322 5319 5315 5309
5519 5512 5504 5496 5487 5479 5470 5461 5453 5446 5439 5433 5427 5421 5416 5411 5406 5401 5396 5391 5386 5380 5374 5368 5362 5358 5354 5350 5344 5335 5330 5327 5323 5318 5313 5309 5305 5301
5508 5501 5492 5484 5475 5466 5457 5449 5442 5435 5429 5423 5418 5412 5407 5402 5397 5392 5387 5382 5377 5372 5366 5359 5353 5348 5343 5339 5336 5330 5321 5316 5313 5309 5305 5300 5296 5292
5497 5489 5480 5471 5462 5454 5446 5439 5432 5426 5420 5414 5409 5404 5399 5394 5389 5383 5378 5373 5368 5363 5358 5351 5344 5338 5332 5328 5325 5322 5314 5307 5302 5298 5295 5291 5288 5284
5486 5478 5469 5460 5451 5443 5436 5429 5422 5416 5411 5405 5400 5395 5390 5385 5379 5374 5369 5364 5359 5353 5348 5343 5336 5330 5324 5319 5315 5311 5307 5301 5294 5288 5283 5280 5277 5275
5475 5466 5457 5449 5440 5433 5426 5419 5413 5407 5402 5396 5391 5385 5380 5375 5370 5365 5359 5354 5349 5344 5339 5334 5328 5322 5316 5310 5305 5301 5297 5292 5288 5283 5277 5271 5267 5265